www.pogodaiklimat.ru

Погода и климат >> Архив погоды >> Сенегал >> Matam


ПОГОДА в Matam

  • Прогноз погоды в Matam
  • Монитор погоды в Matam
  • Климат города

АРХИВ ПОГОДЫ в Matam

Время (UTC), дата Ветер
(напр.,м/с)
 
Видим.   Явления Облачность Т
(С)
Тd
(С)
f
(%)
Тe
(С)
Тes
(С)
Комфортность P
(гПа)
Po
(гПа)
Тmin
(С)
Tmax
(С)
R
(мм)
R24
(мм)
S
(см)
03 14.06 З 1 10 км слабый дождь 9/0
[Ac As]
+28.2 +23.6 76 +38 +38 очень
душно
1012.3 1010.4
06 14.06 штиль 0 10 км {дождь} 8/0
[Ac As]
+28.0 +22.9 74 +37 +37 очень
душно
1011.9 1010.0 +27.2 2
09 14.06 штиль 0 10 км 9/0
[Ac As]
+28.8 +21.1 63 +36 +40 очень
душно
1014.3 1012.4
12 14.06 ЮЗ 1 10 км 9/0
[Ac As]
+31.5 +20.0 51 +38 +47 очень
душно
1016.3 1014.4
15 14.06 З 1 10 км 9/0
[Ac As]
+34.5 +19.6 42 +40 +47 очень
душно
1014.0 1012.1
18 14.06 СЗ 2 10 км 8/0
[Ac As]
+36.3 +20.1 39 +42 +43 опасность
перегрева
1011.6 1009.7 +36.5
21 14.06 штиль 0 10 км 8/0
[Ac As]
+33.8 +19.4 43 +39 +39 очень
душно
1012.5 1010.6
00 15.06 штиль 0 10 км 8/0
[Ac As]
+31.7 +18.9 47 +37 +37 очень
душно
1013.9 1012.0
03 15.06 штиль 0 10 км 9/0
[Ac As]
+30.0 +19.4 53 +36 +36 очень
душно
1013.0 1011.1
06 15.06 штиль 0 10 км 8/0
[Ac trans]
+29.0 +19.9 58 +35 +35 очень
душно
1013.5 1011.6 +28.4
09 15.06 СЗ 1 10 км 3/0
[Ac trans]
+31.5 +20.3 51 +38 +45 очень
душно
1014.4 1012.5
12 15.06 СЗ 2 10 км 1/0
[Ac trans]
+37.0 +16.6 30 +39 +59 опасность
солнечного
удара
1014.4 1012.5
15 15.06 С 1 10 км 6/0
[Ac trans]
+41.0 +17.3 25 +43 +56 опасность
перегрева
1012.2 1010.3
18 15.06 штиль 0 10 км 5/0
[Ac trans]
+41.0 +17.7 26 +44 +46 опасность
перегрева
1011.0 1009.1 +42.1
21 15.06 штиль 0 10 км 4/0
[Ac trans]
+35.0 +18.3 37 +39 +39 очень
душно
1011.8 1009.9
00 16.06 штиль 0 10 км 4/0
[Ac trans]
+33.5 +17.3 38 +37 +37 очень
душно
1013.2 1011.3
03 16.06 СЗ 2 10 км ясно +32.5 +17.5 41 +36 +36 очень
душно
1012.3 1010.4
06 16.06 С 2 10 км ясно +29.5 +17.5 48 +34 +34 очень
душно
1012.5 1010.6 +29.0
09 16.06 С 3 10 км ясно +31.5 +16.8 41 +35 +41 очень
душно
1014.4 1012.5
12 16.06 С 3 10 км ясно +39.0 +15.7 25 +40 +57 опасность
солнечного
удара
1014.5 1012.6
15 16.06 СВ 1 10 км ясно +43.0 +14.0 18 +43 +62 опасность
перегрева
1010.0 1008.1
18 16.06 СВ 1 10 км ясно +43.0 +16.4 22 +45 +48 опасность
перегрева
1009.1 1007.2 +44.0
21 16.06 С 1 10 км ясно +37.8 +15.2 26 +39 +39 очень
душно
1009.9 1008.0
00 17.06 СЗ 4 6000 м пыль ясно +35.0 +12.9 26 +35 +35 очень
жарко
1012.0 1010.1
03 17.06 СЗ 1 6000 м пыль ясно +31.5 +12.2 31 +32 +32 жарко 1011.6 1009.7
06 17.06 С 2 8000 м пыль ясно +29.8 +12.2 34 +31 +31 жарко 1012.5 1010.6 +29.2
09 17.06 С 2 10 км 4/0
[Ci sp]
+32.5 +12.3 29 +33 +40 жарко 1013.6 1011.7
12 17.06 СВ 1 10 км 4/0
[Ci sp]
+39.5 +16.3 26 +42 +64 опасность
перегрева
1013.2 1011.3
15 17.06 В 1 10 км 4/0
[Ci sp]
+42.5 +14.4 19 +43 +60 опасность
перегрева
1011.3 1009.4
18 17.06 СВ 1 10 км 8/0
[Ac trans]
+41.0 +15.5 23 +42 +44 опасность
перегрева
1010.8 1008.9 +43.2
21 17.06 штиль 0 10 км 5/0
[Ac trans]
+38.5 +18.2 31 +42 +42 опасность
перегрева
1012.6 1010.7
00 18.06 СВ 1 10 км 4/0
[Ac trans]
+37.1 +15.2 27 +38 +38 душно 1012.8 1010.9
03 18.06 С 1 9000 м 4/0
[Ac trans]
+33.1 +13.7 31 +34 +34 очень
жарко
1013.3 1011.4
06 18.06 З 2 10 км 3/0
[Ci sp]
+30.0 +15.6 42 +33 +33 душно 1015.5 1013.6 +29.0
09 18.06 СЗ 2 10 км 8/0
[Ac trans]
+29.6 +13.8 38 +31 +35 жарко 1017.1 1015.2
15 18.06 С 1 10 км 8/0
[Ac trans]
+37.0 +15.0 27 +38 +48 душно 1012.2 1010.3
18 18.06 СЗ 3 10 км 8/0
[Ac trans]
+36.0 +13.0 25 +36 +37 очень
жарко
1010.9 1009.0 +38.0
21 18.06 СЗ 1 10 км 8/0
[Ac trans]
+34.0 +13.9 30 +35 +35 очень
жарко
1012.0 1010.1
00 19.06 З 1 10 км 5/0
[Ac trans]
+32.5 +14.2 33 +34 +34 очень
жарко
1013.2 1011.3
03 19.06 СЗ 3 10 км 4/0
[Ac trans]
+30.0 +15.6 42 +33 +33 душно 1012.5 1010.6
06 19.06 СЗ 2 10 км 4/0
[Ac trans]
+28.8 +16.9 49 +33 +25 очень
душно
1012.7 1010.8 +27.2
09 19.06 З 1 10 км слабый дождь 9/0
[Ac As]
+28.0 +16.5 50 +32 +35 душно 1013.7 1011.8
12 19.06 СЗ 1 10 км {дождь} 4/0
[Ac trans Ci sp]
+33.6 +16.0 35 +36 +55 опасность
солнечного
удара
1012.6 1010.8 0.4
15 19.06 З 2 10 км 5/0
[Ac trans Ci sp]
+38.0 +16.8 29 +41 +53 опасность
перегрева
1011.3 1009.4
18 19.06 С 1 10 км 3/0
[Ci sp]
+38.5 +16.1 27 +40 +43 очень
душно
1010.0 1008.1 +39.0
21 19.06 СЗ 1 10 км 3/0
[Ac trans]
+36.0 +16.7 32 +39 +39 очень
душно
1009.7 1007.8
00 20.06 С 1 10 км 5/0
[Ac trans]
+35.0 +17.3 35 +38 +38 очень
душно
1011.1 1009.2
03 20.06 С 1 10 км 5/0
[Ac trans]
+35.0 +17.3 35 +38 +38 очень
душно
1011.1 1009.2
06 20.06 СЗ 2 10 км ясно +29.0 +17.2 49 +33 +33 очень
душно
1011.5 1009.6 +28.3 0.4
09 20.06 З 2 10 км ясно +29.4 +18.1 51 +34 +41 очень
душно
1013.4 1011.5
12 20.06 З 2 10 км ясно +34.0 +17.9 38 +38 +58 опасность
солнечного
удара
1012.3 1010.4
15 20.06 СЗ 2 10 км ясно +39.2 +18.2 30 +43 +59 опасность
перегрева
1009.4 1007.5
18 20.06 З 2 10 км 6/0
[Ac trans]
+38.5 +16.5 28 +41 +42 опасность
перегрева
1008.8 1006.9 +40.5
21 20.06 З 1 10 км 3/0
[Ac trans]
+36.5 +16.1 30 +39 +39 очень
душно
1009.7 1007.3
00 21.06 З 1 10 км 5/0
[Ac trans]
+34.5 +17.4 36 +38 +38 очень
душно
1010.6 1008.7

 

Местоположение метеостанции Matam (Сенегал): широта 15.65 долгота -13.25 высота над уровнем моря 17 м.

В архиве по умолчанию представлена погода в Matam за последнюю неделю. Архивные данные за месяц целиком и за предыдущие месяцы, начиная с января 2011 года, Вы можете получить, выбрав интересующий диапазон дат из раскрывающегося списка и нажав кнопку "Ввод!".


*Определитесь, кто Вы:
робот инопланетянин человек

Внимание! Время в таблицах - всемирное. Для получения местного времени необходимо прибавить поправку, которая в Matam равна 0 ч.

Смотрите также архив погоды в соседних городах и на ближайших метеорологических станциях:

Погода в Kaedi (Мавритания) (62 км)
Погода в Fatoto (Гамбия) (198 км)
Погода в Linguere (Сенегал) (202 км)
Погода в Podor (Сенегал) (214 км)
Погода в Tambacounda (Сенегал) (214 км)
Погода в Kiffa (Мавритания) (226 км)
Погода в Kayes (Мали) (238 км)
Погода в Boutilimit (Мавритания) (259 км)
Погода в Georgetown (Гамбия) (287 км)
Погода в Rosso (Мавритания) (289 км)

Пояснения к столбцам:

Ветер - указаны скорость ветра в м/с - средняя за 10 мин, порывы в срок и между сроками (в фигурных скобках) и направление, откуда дует ветер: С - северный, СВ - северо-восточный, В - восточный, ЮВ - юго-восточный, Ю - южный, ЮЗ - юго-западный, З - западный, СЗ - северо-западный.
Видимость - горизонтальная дальность видимости в метрах или километрах. При видимости от 1 до 10 км при отсутствии осадков обычно наблюдается дымка, при ухудшении видимости до 1 км и менее - туман. В сухую погоду видимость может ухудшаться дымом, пылью или мглою.
Явления - указаны атмосферные явления, наблюдавшиеся в срок или в последний час перед сроком; фигурными скобками обозначены явления, наблюдавшиеся между сроками (за 1-3 часа до срока); квадратными скобками обозначены град или гололедные отложения с указанием их диаметра в мм.
Облачность - указаны через наклонную черту общая и нижняя облачность в баллах и высота нижней границы облаков в метрах; квадратными скобками обозначены формы облаков: Ci - перистые, Cs - перисто-слоистые, Cc - перисто-кучевые, Ac - высококучевые, As - высокослоистые, Sc - слоисто-кучевые, Ns - слоисто-дождевые, Cu - кучевые, Cb - кучево-дождевые. Подробнее классификацию облаков см. в Атласе облаков (PDF).
T - Температура воздуха - температура, измеренная на высоте 2 м над землей.
Td - Температура точки росы - температура, при понижении до которой содержащийся в воздухе водяной пар достигнет насыщения.
f - Относительная влажность воздуха - влажноcть воздуха, измеренная на высоте 2 м над землей.
Te - Эффективная температура - температура, которую ощущает одетый по сезону человек в тени. Характеристика душности погоды. При расчете учитывается влияние влажности воздуха и скорости ветра на теплоощущения человека.
Tes - Эффективная температура на солнце - температура, которую ощущает человек, с поправкой на солнечный нагрев. Характеристика знойности погоды. Зависит от высоты солнца над горизонтом, облачности и скорости ветра. Ночью, в пасмурную погоду, а также при ветре 12 м/с и более поправка равна нулю.
P - Атмосферное давление - приведенное к уровню моря атмосферное давление.
Po - Атмосферное давление - измеренное на уровне метеостанции атмосферное давление.
Tmin - Минимальная температура - минимум температуры воздуха на высоте 2 м над землей.
Tmax - Максимальная температура - максимум температуры воздуха на высоте 2 м над землей.
R - Количество осадков - Количество выпавших осадков за период времени, мм. При наведении курсора мыши на число - период времени, за который выпало указанное количество осадков.
R24 - Количество осадков - Количество выпавших осадков за 24 часа, мм.
S - Снежный покров - Высота снежного покрова, см. При наведении курсора мыши на число - состояние снежного покрова и степень покрытия местности в баллах.